Location: *
(46.1200°N, 11.2700°E)
Time: 05:31:37
(UTC+00:00)

Cosmos 1633 Rocket - Pass Details

Date: 02 March 2021
Orbit: 606 x 624 km, 82.5° (Epoch: 13 April)

Event Time Altitude Azimuth Distance (km) Brightness Sun altitude
Rises 17:39:44 0° 178° (S) 2,888 6.5 -7.2°
Reaches altitude 10° 17:41:58 10° 175° (S) 1,989 5.6 -7.6°
Maximum altitude 17:46:18 61° 95° (E) 713 3.1 -8.3°
Drops below altitude 10° 17:50:42 10° 16° (NNE) 2,008 5.5 -9.1°
Sets 17:52:57 0° 13° (NNE) 2,920 6.4 -9.5°
